Ravenna, OH

10:47 PM EDT on April 27, 2017 (GMT -0400)
Ravenna

Weather History for KPOV - August, 2014

Change the Weather History Date:

Wednesday, August 20, 2014

  Actual Average (KCAK) Record (KCAK)
Temperature  
Mean Temperature 71 °F -  
Max Temperature 79 °F 78 °F 97 °F (1916)
Min Temperature 63 °F 60 °F 44 °F (1949)
Cooling Degree Days 6    
Growing Degree Days 21 (Base 50)    
Moisture  
Dew Point 71 °F    
Average Humidity 85    
Maximum Humidity 96    
Minimum Humidity 75    
Precipitation  
Precipitation 1.58 in - - ()
Sea Level Pressure  
Sea Level Pressure 29.92 in    
Wind  
Wind Speed 3 mph (South)    
Max Wind Speed 9 mph    
Max Gust Speed 16 mph    
Visibility 5 miles    
Events      
Averages and records for this station are not official NWS values.
T = Trace of Precipitation, MM = Missing Value Source: NWS Daily Summary

Daily Weather History Graph

Daily Weather History Graph

Search for Another Location

Airport or City:

Trip Planner

Search our weather history database for the weather conditions in past years. The results will help you decide how hot, cold, wet, or windy it might be!

Date:

Astronomy

Aug. 20, 2014 Rise Set
Actual Time 6:39 AM EDT 8:16 PM EDT
Civil Twilight 6:10 AM EDT 8:45 PM EDT
Nautical Twilight 5:34 AM EDT 9:20 PM EDT
Astronomical Twilight 4:57 AM EDT 9:58 PM EDT
Moon 2:17 AM EDT (8/20) 5:01 PM EDT (8/20)
Length of Visible Light 14h 35m
Length of Day
13h 37m
Waning Crescent, 21% of the Moon is Illuminated
Aug 20
Waning Crescent
Aug 25
New
Sep 2
First Quarter
Sep 8
Full
Sep 15
Last Quarter

Hourly Weather History & Observations

Time (EDT) Temp. Dew Point Humidity Pressure Visibility Wind Dir Wind Speed Gust Speed Precip Events Conditions
12:19 AM 65.3 °F - N/A% 29.91 in 2.0 mi Calm Calm - 0.07 in   Unknown
12:38 AM 65.1 °F - N/A% 29.89 in 5.0 mi SE 3.5 mph - 0.11 in   Unknown
12:59 AM 64.9 °F - N/A% 29.89 in 7.0 mi SE 3.5 mph - 0.11 in   Unknown
1:19 AM 64.9 °F - N/A% 29.89 in 7.0 mi SE 3.5 mph - 0.01 in   Unknown
1:38 AM 64.9 °F - N/A% 29.88 in 7.0 mi SE 3.5 mph - 0.01 in   Unknown
1:59 AM 64.8 °F - N/A% 29.87 in 5.0 mi ENE 3.5 mph - 0.01 in   Unknown
2:19 AM 64.8 °F - N/A% 29.87 in 5.0 mi ESE 3.5 mph - N/A   Unknown
2:38 AM 64.8 °F - N/A% 29.88 in 7.0 mi NNW 5.8 mph - N/A   Unknown
2:59 AM 64.4 °F - N/A% 29.89 in 0.5 mi South 3.5 mph 16.1 mph 0.45 in   Unknown
3:19 AM 64.2 °F - N/A% 29.86 in 5.0 mi Calm Calm - 0.03 in   Unknown
3:39 AM 64.4 °F - N/A% 29.88 in 7.0 mi SE 4.6 mph - 0.05 in   Unknown
3:58 AM 63.9 °F - N/A% 29.87 in 7.0 mi SE 3.5 mph - 0.05 in   Unknown
4:19 AM 63.7 °F - N/A% 29.87 in 7.0 mi Calm Calm - N/A   Unknown
4:39 AM 63.9 °F - N/A% 29.87 in 7.0 mi Calm Calm - N/A   Unknown
4:59 AM 64.0 °F - N/A% 29.86 in 3.0 mi SE 4.6 mph - 0.03 in   Unknown
5:19 AM 64.0 °F - N/A% 29.85 in 7.0 mi East 4.6 mph - 0.03 in   Unknown
5:38 AM 64.4 °F - N/A% 29.87 in 10.0 mi SE 5.8 mph - 0.03 in   Unknown
5:59 AM 64.4 °F - N/A% 29.87 in 10.0 mi SE 4.6 mph - 0.10 in   Unknown
6:19 AM 64.4 °F - N/A% 29.90 in 1.5 mi WSW 5.8 mph - 0.08 in   Unknown
6:38 AM 64.6 °F - N/A% 29.92 in 1.0 mi Calm Calm - 0.25 in   Unknown
6:58 AM 64.8 °F - N/A% 29.93 in 2.5 mi Calm Calm - 0.29 in   Unknown
7:19 AM 64.8 °F - N/A% 29.92 in 2.5 mi Calm Calm - 0.07 in   Unknown
7:39 AM 64.9 °F - N/A% 29.92 in 2.0 mi ESE 3.5 mph - 0.16 in   Unknown
7:58 AM 64.8 °F - N/A% 29.92 in 2.5 mi Calm Calm - 0.22 in   Unknown
8:19 AM 64.6 °F - N/A% 29.92 in 5.0 mi SE 3.5 mph - 0.02 in   Unknown
8:38 AM 64.6 °F - N/A% 29.92 in 7.0 mi SE 4.6 mph - 0.03 in   Unknown
8:59 AM 64.9 °F - N/A% 29.91 in 5.0 mi Calm Calm - 0.03 in   Unknown
9:19 AM 66.6 °F - N/A% 29.91 in 5.0 mi SE 4.6 mph - N/A   Unknown
9:38 AM 67.1 °F - N/A% 29.92 in 7.0 mi South 3.5 mph - N/A   Unknown
9:59 AM 67.8 °F - N/A% 29.93 in 7.0 mi Calm Calm - N/A   Unknown
10:19 AM 69.8 °F - N/A% 29.92 in 7.0 mi SE 4.6 mph - N/A   Unknown
10:38 AM 71.1 °F - N/A% 29.93 in 7.0 mi Calm Calm - N/A   Unknown
10:59 AM 72.1 °F 69.8 °F 92% 29.93 in 7.0 mi South 6.9 mph - N/A   Unknown
11:19 AM 73.2 °F 69.3 °F 87% 29.93 in 7.0 mi South 3.5 mph - N/A   Unknown
11:38 AM 74.3 °F 68.2 °F 81% 29.92 in 7.0 mi SW 4.6 mph - N/A   Unknown
11:59 AM 75.9 °F 69.6 °F 81% 29.93 in 5.0 mi South 6.9 mph - N/A   Unknown
12:19 PM 75.7 °F 68.4 °F 78% 29.92 in 7.0 mi SSW 6.9 mph - N/A   Unknown
12:38 PM 76.3 °F 68.0 °F 75% 29.93 in 5.0 mi SSW 6.9 mph - N/A   Unknown
12:59 PM 76.3 °F 69.1 °F 78% 29.93 in 5.0 mi SW 8.1 mph - N/A   Unknown
1:19 PM 75.6 °F 69.4 °F 81% 29.93 in 7.0 mi SSW 8.1 mph - N/A   Unknown
1:38 PM 75.6 °F 69.4 °F 81% 29.93 in 7.0 mi SSW 8.1 mph - N/A   Unknown
1:58 PM 75.6 °F 70.0 °F 83% 29.94 in 7.0 mi SW 6.9 mph - N/A   Unknown
2:19 PM 76.8 °F 70.3 °F 80% 29.94 in 7.0 mi SW 9.2 mph - N/A   Unknown
2:39 PM 75.7 °F 70.0 °F 82% 29.94 in 7.0 mi SW 5.8 mph - N/A   Unknown
2:58 PM 77.2 °F 70.9 °F 81% 29.93 in 7.0 mi SSW 5.8 mph - N/A   Unknown
3:19 PM 75.6 °F 71.2 °F 86% 29.93 in 7.0 mi SW 5.8 mph - N/A   Unknown
3:38 PM 75.7 °F 70.9 °F 85% 29.93 in 7.0 mi WSW 3.5 mph - N/A   Unknown
3:59 PM 76.6 °F 72.3 °F 86% 29.93 in 4.0 mi SSW 3.5 mph - N/A   Unknown
4:19 PM 75.4 °F 73.8 °F 95% 29.93 in 1.2 mi WSW 3.5 mph - 0.08 in   Unknown
4:38 PM 71.2 °F - N/A% 29.94 in 1.8 mi West 3.5 mph - 0.29 in   Unknown
4:59 PM 75.2 °F 72.0 °F 90% 29.92 in 7.0 mi SW 3.5 mph - 0.29 in   Unknown
5:19 PM 76.3 °F 74.1 °F 93% 29.92 in 5.0 mi Calm Calm - N/A   Unknown
5:39 PM 77.7 °F 75.4 °F 92% 29.94 in 7.0 mi SSW 3.5 mph - N/A   Unknown
5:58 PM 79.0 °F 72.7 °F 81% 29.94 in 7.0 mi SW 3.5 mph - N/A   Unknown
6:19 PM 77.5 °F 72.5 °F 84% 29.94 in 7.0 mi Calm Calm - N/A   Unknown
6:39 PM 73.0 °F 71.4 °F 95% 29.94 in 7.0 mi NNE 5.8 mph - N/A   Unknown
6:59 PM 72.7 °F 71.4 °F 96% 29.94 in 5.0 mi North 4.6 mph - N/A   Unknown
7:19 PM 73.9 °F 70.5 °F 89% 29.94 in 7.0 mi Calm Calm - N/A   Unknown
7:38 PM 71.8 °F - N/A% 29.95 in 7.0 mi Calm Calm - N/A   Unknown
7:59 PM 70.7 °F - N/A% 29.95 in 5.0 mi Calm Calm - N/A   Unknown
8:19 PM 70.0 °F - N/A% 29.95 in 7.0 mi Calm Calm - N/A   Unknown
8:39 PM 69.6 °F - N/A% 29.95 in 4.0 mi Calm Calm - N/A   Unknown
8:58 PM 68.9 °F - N/A% 29.95 in 3.0 mi Calm Calm - N/A   Unknown
9:19 PM 68.7 °F - N/A% 29.95 in 4.0 mi Calm Calm - N/A   Unknown
9:39 PM 68.5 °F - N/A% 29.96 in 5.0 mi Calm Calm - N/A   Unknown
9:58 PM 67.6 °F - N/A% 29.97 in 4.0 mi Calm Calm - N/A   Unknown
10:19 PM 67.3 °F - N/A% 29.98 in 0.5 mi Calm Calm - N/A   Unknown
10:39 PM 66.0 °F - N/A% 29.98 in 0.5 mi Calm Calm - N/A   Unknown
10:59 PM 66.2 °F - N/A% 29.99 in 5.0 mi Calm Calm - N/A   Unknown
11:19 PM 66.0 °F - N/A% 30.00 in 1.2 mi Calm Calm - N/A   Unknown
11:39 PM 67.3 °F - N/A% 30.00 in 4.0 mi Calm Calm - N/A   Unknown
11:59 PM 67.6 °F - N/A% 30.00 in 4.0 mi Calm Calm - N/A   Unknown